Regional Weather Roundup
Issued by NWS

Home | Current Version | Previous Version | Graphics & Text | Print | Product List | Glossary On
Versions: 1 2 3 4 5 6 7 8 9 10 11 12 13 14 15 16 17 18 19 20 21 22 23 24 25 26 27 28 29 30 31 32 33 34 35 36 37 38 39 40 41 42 43 44 45 46 47 48 49 50
000
ASUS43 KMKX 290511
RWRWI

WISCONSIN REGIONAL WEATHER ROUNDUP
NATIONAL WEATHER SERVICE MILWAUKEE/SULLIVAN WI
1100 PM CST SUN DEC 28 2014

NOTE: "FAIR" INDICATES FEW OR NO CLOUDS BELOW 12,000 FEET WITH NO
SIGNIFICANT WEATHER AND/OR OBSTRUCTIONS TO VISIBILITY.

WIZ001-002-006>008-014>016-023>028-290600-
NORTHWEST WISCONSIN

CITY           SKY/WX    TMP DP  RH WIND       PRES   REMARKS
SUPERIOR ARPT  CLEAR      5  -4  65 N6        30.39R WCI  -5
ASHLAND        CLEAR      0  -5  79 W3        30.35R
HAYWARD        CLEAR     -6 -11  79 CALM      30.31R
SIREN          CLEAR     -3  -6  87 N3        30.36R
CUMBERLAND     PTCLDY     3  -6  66 CALM      30.31R
RICE LAKE      PTCLDY     0  -5  79 CALM      30.34R
CHETEK         PTCLDY    -3  -5  87 W3        30.34R
LADYSMITH      CLEAR     -6 -10  81 CALM      30.32R
EAU CLAIRE     MOCLDY     3  -1  83 N5        30.33R WCI  -6
MENOMONIE      MOCLDY     4   1  86 CALM      30.35R
NEW RICHMOND   PTCLDY     0  -5  80 N6        30.35R WCI -12
OSCEOLA        PTCLDY    -2  -5  87 CALM      30.39R
$$

WIZ003>005-009-010-017-018-290600-
NORTH CENTRAL WISCONSIN

CITY           SKY/WX    TMP DP  RH WIND       PRES   REMARKS
MANITOWISH WTR PTCLDY   -13 -17  80 NW3       30.23R
ARBOR VITAE    PTCLDY    -4  -8  82 CALM      30.23R
WOODRUFF       PTCLDY    -4  -8  82 CALM      30.23R
RHINELANDER    PTCLDY    -4  -6  91 W3        30.24R
EAGLE RIVER    FLURRIES  -3  -7  81 W3        30.22R
LAND O LAKES   FLURRIES   4   1  86 NW5       30.21S WCI  -5
PHILLIPS       LGT SNOW -10 -14  83 CALM      30.26R
TOMAHAWK       PTCLDY    -8 -12  82 CALM      30.26R
MEDFORD        PTCLDY   N/A N/A N/A N6        30.26R
MERRILL        PTCLDY    -5  -8  86 CALM      30.27R
$$

WIZ029-030-035-036-043>047-290600-
CENTRAL WISCONSIN

CITY           SKY/WX    TMP DP  RH WIND       PRES   REMARKS
WAUSAU         PTCLDY     5   1  83 NW6       30.26R WCI  -6
MOSINEE        PTCLDY     9   7  92 N3        30.27R
MARSHFIELD     MOCLDY     9   5  84 NE5       30.28R WCI   1
STEVENS POINT  PTCLDY     9   7  90 CALM      30.29R
WAUPACA        CLEAR     18  13  79 N6        30.29R WCI  10
WAUTOMA        CLEAR     17  14  88 N6        30.29R WCI   9
WISC RAPIDS    MOCLDY    14   7  73 NE6       30.30R WCI   5
CAMP DOUGLAS   PTCLDY    15  14  99 NW3       30.30R
$$

WIZ011>013-019>022-031-037>040-048>050-290600-
NORTHEAST WISCONSIN

CITY           SKY/WX    TMP DP  RH WIND       PRES   REMARKS
ANTIGO         PTCLDY    -3  -5  90 CALM      30.24R
SHAWANO        FAIR      16  10  77 W3        30.30R
OCONTO         CLEAR     14   8  76 NW3       30.31R
STURGEON BAY   CLEAR     16   7  67 N12       30.29R WCI   3
GREEN BAY      CLEAR     18  10  71 N10       30.29R WCI   6
MANITOWOC      CLEAR     21  14  74 N9        30.28R WCI  11
APPLETON       PTCLDY    19  14  79 N8        30.28R WCI   9
CLINTONVILLE   CLEAR     18   9  68 N6        30.29R WCI   9
OSHKOSH        PTCLDY    20  13  74 NW8       30.27R WCI  10
$$

WIZ032>034-041-042-053>061-290600-
SOUTHWEST WISCONSIN

CITY           SKY/WX    TMP DP  RH WIND       PRES   REMARKS
LA CROSSE      MOCLDY    18  14  84 N5        30.32R WCI  11
SPARTA         PTCLDY    13  12  94 CALM      30.32R
VIROQUA        MOCLDY    19  16  86 NE6       30.26R WCI  11
BOSCOBEL       MOCLDY    23  18  81 VRB5      30.28R WCI  17
PRAIRIE DU CHI CLOUDY    25  19  79 CALM      30.29R
PLATTEVILLE    CLOUDY    25  21  86 CALM      30.25R
$$

WIZ056-057-062-063-064-067-068-290600-
SOUTH CENTRAL WISCONSIN

CITY           SKY/WX    TMP DP  RH WIND       PRES   REMARKS
REEDSBURG      MOCLDY    20  14  77 N5        30.28R WCI  13
BARABOO/DELLS  MOCLDY    20  13  73 N6        30.27S WCI  13
LONE ROCK      MOCLDY    27  15  61 N14       30.28R WCI  16
MINERAL POINT  MOCLDY    27  21  80 CALM      30.24R
MADISON        CLOUDY    26  20  77 N12       30.26R WCI  16
MIDDLETON      CLOUDY    28  22  76 N10       30.25R WCI  19
WATERTOWN      CLOUDY    26  22  84 N8        30.25R WCI  17
MONROE         PTCLDY    27  21  80 CALM      30.23R
JANESVILLE     PTCLDY    23  19  86 CALM      30.24S
$$

WIZ051-052-058>065-066-070>072-290600-
SOUTHEAST WISCONSIN

CITY           SKY/WX    TMP DP  RH WIND       PRES   REMARKS
MILWAUKEE      MOCLDY    24  17  74 CALM      30.25R
WAUKESHA       CLOUDY    23  19  86 W3        30.25R
MILWAUKEE/TIMM CLOUDY    28  19  69 N5        30.26R WCI  23
RACINE         PTCLDY    24  17  74 NW5       30.26R WCI  18
BURLINGTON     CLOUDY    21  19  93 CALM      30.25R
KENOSHA        CLOUDY    26  19  74 N3        30.25R
FOND DU LAC    MOCLDY    23  15  71 N10       30.27R WCI  12
SHEBOYGAN      CLOUDY    24  15  68 N9        30.26R WCI  14
WEST BEND      CLOUDY    27  19  74 NW6       30.25R WCI  20
JUNEAU         CLOUDY    24  18  77 NW7       30.27R WCI  16
$$

LSZ147-162-290600-
LAKE SUPERIOR

STATION/POSITION TIME  TEMP    WIND        PRES    WAVE
                       AIR SEA DIR/SP/G            HT/PER
                 (UTC) (F)     (DEG/KT/KT) (MB)    (FT/S)
DEVILS ISLAND    0500    9     320/ 13/ 16 1029.4R
PORT WING        0400   12     330/ 12/ 17 1027.4R
SAXON HARBOR     0400    7     200/  6/  8 1026.8
$$

LMZ867-665-643>646-290600-
LAKE MICHIGAN

STATION/POSITION TIME  TEMP    WIND        PRES    WAVE
                       AIR SEA DIR/SP/G            HT/PER
                 (UTC) (F)     (DEG/KT/KT) (MB)    (FT/S)
CHAMBERS ISLAND  0400   17     320/ 14/ 19 1025.1R
NORTHPORT PIER   0409   19     320/ 17/ 19 1024.7R
SISTER BAY       0413           10/ 24/ 29   N/A
ALGOMA LAKESHORE 0415          350/  9/ 11   N/A
KEWAUNEE LAKESHO 0400   21     350/  3/  9 1023.8R
SHEBOYGAN LAKESH 0500   25 36  330/ 10/ 12 1026.2R
PORT WASHINGTON  0400   28     330/  3/  5 1024.7R
MILWAUKEE LAKESH 0400   29     340/  4/  5   N/A
KENOSHA   LAKESH 0500   29     330/  6/  9 1024.4R
$$

TC  - TEMPERATURE IN CELSIUS
VSB - VISIBILITY IN STATUTE MILES
WCI - WIND CHILL INDEX
HX  - HEAT INDEX



USA.gov is the U.S. government's official web portal to all federal, state and local government web resources and services.